| time (UTC) | temp C | wind direction | speed KPH | gust KPH | rain 1hr cm | rain 24hr cm | rain mn cm | humidity % | barometer mb |
| 20260504215304 | 26 | 356 | 3.2 | 9.7 | 0.00 | 0.00 | 0.00 | 27 | 1015.4 |
| 20260504214759 | 26 | 352 | 1.6 | 3.2 | 0.00 | 0.00 | 0.00 | 27 | 1015.3 |
| 20260504214256 | 26 | 197 | 4.8 | 4.8 | 0.00 | 0.00 | 0.00 | 27 | 1015.5 |
| 20260504213753 | 26 | 291 | 0.0 | 3.2 | 0.00 | 0.00 | 0.00 | 27 | 1015.2 |
| 20260504213249 | 27 | 312 | 1.6 | 12.9 | 0.00 | 0.00 | 0.00 | 27 | 1015.4 |
| 20260504212746 | 27 | 190 | 0.0 | 1.6 | 0.00 | 0.00 | 0.00 | 27 | 1015.5 |
| 20260504212242 | 27 | 236 | 4.8 | 6.4 | 0.00 | 0.00 | 0.00 | 26 | 1015.5 |
| 20260504211740 | 27 | 115 | 3.2 | 9.7 | 0.00 | 0.00 | 0.00 | 25 | 1015.5 |
| 20260504211236 | 27 | 341 | 1.6 | 4.8 | 0.00 | 0.00 | 0.00 | 26 | 1015.5 |
| 20260504210734 | 27 | 317 | 3.2 | 6.4 | 0.00 | 0.00 | 0.00 | 26 | 1015.3 |
| 20260504210231 | 27 | 241 | 6.4 | 9.7 | 0.00 | 0.00 | 0.00 | 26 | 1015.6 |
| 20260504205727 | 26 | 341 | 1.6 | 3.2 | 0.00 | 0.00 | 0.00 | 27 | 1015.7 |
| 20260504205225 | 26 | 328 | 1.6 | 12.9 | 0.00 | 0.00 | 0.00 | 27 | 1015.7 |
| 20260504204723 | 27 | 229 | 4.8 | 6.4 | 0.00 | 0.00 | 0.00 | 26 | 1015.5 |
| 20260504204221 | 27 | 246 | 1.6 | 4.8 | 0.00 | 0.00 | 0.00 | 26 | 1015.7 |
| 20260504203721 | 27 | 192 | 1.6 | 4.8 | 0.00 | 0.00 | 0.00 | 27 | 1015.7 |
| 20260504203218 | 27 | 252 | 3.2 | 6.4 | 0.00 | 0.00 | 0.00 | 27 | 1015.7 |
| 20260504202717 | 26 | 99 | 3.2 | 6.4 | 0.00 | 0.00 | 0.00 | 28 | 1015.6 |
| 20260504202215 | 26 | 127 | 3.2 | 11.3 | 0.00 | 0.00 | 0.00 | 27 | 1016.0 |
| 20260504201712 | 27 | 66 | 1.6 | 1.6 | 0.00 | 0.00 | 0.00 | 29 | 1015.9 |
| 20260504201209 | 27 | 220 | 3.2 | 6.4 | 0.00 | 0.00 | 0.00 | 27 | 1016.0 |
| 20260504200707 | 27 | 23 | 0.0 | 11.3 | 0.00 | 0.00 | 0.00 | 28 | 1016.2 |
| 20260504200203 | 26 | 215 | 4.8 | 9.7 | 0.00 | 0.00 | 0.00 | 27 | 1016.2 |
| 20260504195659 | 27 | 192 | 3.2 | 11.3 | 0.00 | 0.00 | 0.00 | 27 | 1015.9 |
| 20260504195155 | 26 | 231 | 3.2 | 6.4 | 0.00 | 0.00 | 0.00 | 28 | 1016.2 |
| 20260504194652 | 27 | 206 | 6.4 | 12.9 | 0.00 | 0.00 | 0.00 | 27 | 1016.1 |
| 20260504194148 | 27 | 256 | 3.2 | 4.8 | 0.00 | 0.00 | 0.00 | 27 | 1016.1 |
| 20260504193645 | 27 | 69 | 0.0 | 11.3 | 0.00 | 0.00 | 0.00 | 27 | 1016.4 |
| 20260504193143 | 27 | 8 | 0.0 | 6.4 | 0.00 | 0.00 | 0.00 | 27 | 1016.3 |
| 20260504192640 | 27 | 141 | 3.2 | 6.4 | 0.00 | 0.00 | 0.00 | 26 | 1016.2 |
| 20260504192138 | 27 | 232 | 3.2 | 6.4 | 0.00 | 0.00 | 0.00 | 26 | 1016.3 |
| 20260504191636 | 26 | 94 | 4.8 | 6.4 | 0.00 | 0.00 | 0.00 | 27 | 1016.4 |
| 20260504191132 | 26 | 115 | 3.2 | 4.8 | 0.00 | 0.00 | 0.00 | 28 | 1016.4 |
| 20260504190628 | 26 | 238 | 1.6 | 3.2 | 0.00 | 0.00 | 0.00 | 28 | 1016.7 |
| 20260504190125 | 27 | 317 | 1.6 | 3.2 | 0.00 | 0.00 | 0.00 | 26 | 1016.5 |
| 20260504185622 | 28 | 90 | 0.0 | 3.2 | 0.00 | 0.00 | 0.00 | 27 | 1016.8 |
| 20260504185118 | 27 | 54 | 0.0 | 4.8 | 0.00 | 0.00 | 0.00 | 28 | 1016.6 |
| 20260504184614 | 26 | 179 | 1.6 | 4.8 | 0.00 | 0.00 | 0.00 | 29 | 1016.9 |
| 20260504184109 | 27 | 221 | 4.8 | 9.7 | 0.00 | 0.00 | 0.00 | 27 | 1017.1 |
| 20260504183607 | 26 | 231 | 0.0 | 1.6 | 0.00 | 0.00 | 0.00 | 28 | 1016.9 |
| 20260504183105 | 26 | 70 | 1.6 | 6.4 | 0.00 | 0.00 | 0.00 | 29 | 1017.1 |
| 20260504182601 | 26 | 247 | 6.4 | 6.4 | 0.00 | 0.00 | 0.00 | 27 | 1017.2 |
| 20260504182059 | 26 | 53 | 1.6 | 4.8 | 0.00 | 0.00 | 0.00 | 29 | 1017.1 |
| 20260504181556 | 26 | 195 | 1.6 | 9.7 | 0.00 | 0.00 | 0.00 | 28 | 1017.3 |
| 20260504181054 | 26 | 72 | 0.0 | 4.8 | 0.00 | 0.00 | 0.00 | 28 | 1017.2 |
| 20260504180553 | 27 | 211 | 1.6 | 6.4 | 0.00 | 0.00 | 0.00 | 28 | 1017.3 |
| 20260504180051 | 26 | 52 | 1.6 | 3.2 | 0.00 | 0.00 | 0.00 | 27 | 1017.4 |
| 20260504175548 | 25 | 48 | 1.6 | 9.7 | 0.00 | 0.00 | 0.00 | 28 | 1017.4 |
| 20260504175045 | 25 | 20 | 1.6 | 9.7 | 0.00 | 0.00 | 0.00 | 27 | 1017.6 |
| 20260504174543 | 26 | 278 | 1.6 | 3.2 | 0.00 | 0.00 | 0.00 | 28 | 1017.4 |
| 20260504174039 | 25 | 117 | 1.6 | 9.7 | 0.00 | 0.00 | 0.00 | 30 | 1017.6 |
| 20260504173536 | 26 | 326 | 3.2 | 6.4 | 0.00 | 0.00 | 0.00 | 30 | 1017.5 |
| 20260504173034 | 26 | 359 | 1.6 | 3.2 | 0.00 | 0.00 | 0.00 | 28 | 1017.7 |
| 20260504172530 | 26 | 12 | 1.6 | 4.8 | 0.00 | 0.00 | 0.00 | 28 | 1017.8 |
| 20260504172026 | 26 | 28 | 1.6 | 1.6 | 0.00 | 0.00 | 0.00 | 28 | 1017.9 |
| 20260504171523 | 25 | 66 | 0.0 | 4.8 | 0.00 | 0.00 | 0.00 | 29 | 1018.1 |
| 20260504171020 | 25 | 310 | 1.6 | 11.3 | 0.00 | 0.00 | 0.00 | 30 | 1018.2 |
| 20260504170516 | 25 | 225 | 3.2 | 3.2 | 0.00 | 0.00 | 0.00 | 28 | 1017.9 |
| 20260504160436 | 23 | 172 | 6.4 | 11.3 | 0.00 | 0.00 | 0.00 | 37 | 1019.1 |
| 20260504150900 | 20 | 112 | 1.6 | 3.2 | 0.00 | 0.00 | 0.00 | 43 | 1019.1 |
| 20260504150356 | 20 | 82 | 1.6 | 11.3 | 0.00 | 0.00 | 0.00 | 45 | 1019.2 |
| 20260504141327 | 18 | 41 | 0.0 | 0.0 | 0.00 | 0.00 | 0.00 | 55 | 1019.4 |
| 20260504140823 | 18 | 51 | 0.0 | 4.8 | 0.00 | 0.00 | 0.00 | 54 | 1019.3 |
| 20260504140319 | 17 | 253 | 1.6 | 4.8 | 0.00 | 0.00 | 0.00 | 55 | 1019.4 |
| 20260504130748 | 16 | 25 | 1.6 | 1.6 | 0.00 | 0.00 | 0.00 | 63 | 1019.4 |
| 20260504130244 | 16 | 92 | 0.0 | 1.6 | 0.00 | 0.00 | 0.00 | 64 | 1019.6 |
| 20260504120208 | 10 | 66 | 0.0 | 0.0 | 0.00 | 0.00 | 0.00 | 87 | 1019.6 |
| 20260504110635 | 6 | 36 | 0.0 | 0.0 | 0.00 | 0.00 | 0.00 | 96 | 1019.8 |
| 20260504110131 | 6 | 38 | 0.0 | 0.0 | 0.00 | 0.00 | 0.00 | 95 | 1019.8 |
| 20260504100557 | 5 | 36 | 0.0 | 0.0 | 0.00 | 0.00 | 0.00 | 95 | 1019.7 |
| 20260504081950 | 6 | 37 | 0.0 | 0.0 | 0.00 | 0.00 | 0.00 | 91 | 1019.6 |
| 20260504081448 | 6 | 37 | 0.0 | 0.0 | 0.00 | 0.00 | 0.00 | 91 | 1019.6 |
| 20260504080943 | 6 | 38 | 0.0 | 0.0 | 0.00 | 0.00 | 0.00 | 91 | 1019.6 |
| 20260504080440 | 6 | 38 | 0.0 | 0.0 | 0.00 | 0.00 | 0.00 | 91 | 1019.5 |
| 20260504070408 | 6 | 34 | 0.0 | 0.0 | 0.00 | 0.00 | 0.00 | 90 | 1019.5 |
| 20260504050253 | 6 | 40 | 0.0 | 0.0 | 0.00 | 0.00 | 0.00 | 86 | 1019.6 |
| 20260504045751 | 6 | 40 | 0.0 | 0.0 | 0.00 | 0.00 | 0.00 | 85 | 1019.8 |
| 20260504045250 | 6 | 40 | 0.0 | 0.0 | 0.00 | 0.00 | 0.00 | 85 | 1019.6 |
| 20260504044748 | 6 | 40 | 0.0 | 0.0 | 0.00 | 0.00 | 0.00 | 84 | 1019.8 |
| 20260504044246 | 6 | 41 | 0.0 | 0.0 | 0.00 | 0.00 | 0.00 | 84 | 1019.9 |
| 20260504043743 | 6 | 41 | 0.0 | 0.0 | 0.00 | 0.00 | 0.00 | 83 | 1020.0 |
| 20260504043239 | 6 | 41 | 0.0 | 0.0 | 0.00 | 0.00 | 0.00 | 83 | 1019.9 |
| 20260504042737 | 6 | 34 | 0.0 | 0.0 | 0.00 | 0.00 | 0.00 | 81 | 1019.8 |
| 20260504042233 | 6 | 34 | 0.0 | 0.0 | 0.00 | 0.00 | 0.00 | 81 | 1019.9 |
| 20260504041730 | 6 | 34 | 0.0 | 0.0 | 0.00 | 0.00 | 0.00 | 80 | 1019.9 |
| 20260504041226 | 6 | 34 | 0.0 | 0.0 | 0.00 | 0.00 | 0.00 | 79 | 1019.9 |
| 20260504040722 | 7 | 32 | 0.0 | 0.0 | 0.00 | 0.00 | 0.00 | 80 | 1019.7 |
| 20260504040220 | 7 | 42 | 0.0 | 0.0 | 0.00 | 0.00 | 0.00 | 80 | 1019.9 |
| 20260504035716 | 7 | 43 | 0.0 | 0.0 | 0.00 | 0.00 | 0.00 | 79 | 1019.9 |
| 20260504035213 | 7 | 51 | 0.0 | 0.0 | 0.00 | 0.00 | 0.00 | 80 | 1019.9 |
| 20260504034710 | 7 | 48 | 0.0 | 0.0 | 0.00 | 0.00 | 0.00 | 78 | 1020.0 |
| 20260504034208 | 7 | 48 | 0.0 | 0.0 | 0.00 | 0.00 | 0.00 | 78 | 1020.0 |
| 20260504033705 | 7 | 48 | 0.0 | 0.0 | 0.00 | 0.00 | 0.00 | 78 | 1019.8 |
| 20260504033202 | 7 | 48 | 0.0 | 0.0 | 0.00 | 0.00 | 0.00 | 77 | 1019.7 |
| 20260504032659 | 7 | 48 | 0.0 | 0.0 | 0.00 | 0.00 | 0.00 | 78 | 1019.6 |
| 20260504032156 | 7 | 61 | 0.0 | 0.0 | 0.00 | 0.00 | 0.00 | 77 | 1019.7 |
| 20260504031653 | 7 | 45 | 0.0 | 0.0 | 0.00 | 0.00 | 0.00 | 76 | 1019.8 |
| 20260504031149 | 7 | 45 | 0.0 | 0.0 | 0.00 | 0.00 | 0.00 | 75 | 1019.7 |
| 20260504030646 | 7 | 51 | 0.0 | 0.0 | 0.00 | 0.00 | 0.00 | 75 | 1019.6 |
| 20260504030143 | 7 | 43 | 0.0 | 0.0 | 0.00 | 0.00 | 0.00 | 75 | 1019.3 |
| 20260504025640 | 8 | 43 | 0.0 | 0.0 | 0.00 | 0.00 | 0.00 | 73 | 1019.6 |
| 20260504025136 | 8 | 43 | 0.0 | 0.0 | 0.00 | 0.00 | 0.00 | 73 | 1019.6 |
| 20260504024634 | 8 | 43 | 0.0 | 0.0 | 0.00 | 0.00 | 0.00 | 74 | 1019.6 |
| 20260504024130 | 8 | 41 | 0.0 | 0.0 | 0.00 | 0.00 | 0.00 | 73 | 1019.5 |
| 20260504023627 | 8 | 43 | 0.0 | 0.0 | 0.00 | 0.00 | 0.00 | 72 | 1019.6 |
| 20260504023123 | 8 | 42 | 0.0 | 0.0 | 0.00 | 0.00 | 0.00 | 72 | 1019.5 |
| 20260504022619 | 8 | 45 | 0.0 | 0.0 | 0.00 | 0.00 | 0.00 | 71 | 1019.7 |
| 20260504022115 | 8 | 49 | 0.0 | 0.0 | 0.00 | 0.00 | 0.00 | 70 | 1019.6 |
| 20260504021614 | 8 | 41 | 0.0 | 0.0 | 0.00 | 0.00 | 0.00 | 69 | 1019.6 |
| 20260504021110 | 9 | 41 | 0.0 | 0.0 | 0.00 | 0.00 | 0.00 | 68 | 1019.6 |
| 20260504020607 | 9 | 41 | 0.0 | 0.0 | 0.00 | 0.00 | 0.00 | 67 | 1019.6 |
| 20260504020103 | 9 | 38 | 0.0 | 0.0 | 0.00 | 0.00 | 0.00 | 67 | 1019.6 |
| 20260504015600 | 10 | 32 | 0.0 | 0.0 | 0.00 | 0.00 | 0.00 | 66 | 1019.6 |
| 20260504015055 | 10 | 33 | 0.0 | 0.0 | 0.00 | 0.00 | 0.00 | 66 | 1019.5 |
| 20260504014552 | 10 | 33 | 0.0 | 0.0 | 0.00 | 0.00 | 0.00 | 64 | 1019.6 |
| 20260504014049 | 10 | 35 | 0.0 | 0.0 | 0.00 | 0.00 | 0.00 | 64 | 1019.6 |
| 20260504013547 | 10 | 33 | 0.0 | 0.0 | 0.00 | 0.00 | 0.00 | 63 | 1019.4 |
| 20260504013044 | 10 | 34 | 0.0 | 0.0 | 0.00 | 0.00 | 0.00 | 62 | 1019.4 |
| 20260504012541 | 10 | 20 | 0.0 | 0.0 | 0.00 | 0.00 | 0.00 | 62 | 1019.4 |
| 20260504012039 | 10 | 39 | 0.0 | 0.0 | 0.00 | 0.00 | 0.00 | 61 | 1019.2 |
| 20260504011535 | 11 | 46 | 0.0 | 0.0 | 0.00 | 0.00 | 0.00 | 59 | 1019.1 |
| 20260504011031 | 11 | 46 | 0.0 | 0.0 | 0.00 | 0.00 | 0.00 | 59 | 1019.2 |
| 20260504010527 | 11 | 33 | 0.0 | 0.0 | 0.00 | 0.00 | 0.00 | 58 | 1018.9 |
| 20260504010023 | 11 | 35 | 0.0 | 0.0 | 0.00 | 0.00 | 0.00 | 57 | 1018.6 |
| 20260504005520 | 11 | 41 | 0.0 | 0.0 | 0.00 | 0.00 | 0.00 | 55 | 1018.7 |
| 20260504005018 | 12 | 43 | 0.0 | 0.0 | 0.00 | 0.00 | 0.00 | 56 | 1018.7 |
| 20260504004516 | 12 | 43 | 0.0 | 0.0 | 0.00 | 0.00 | 0.00 | 54 | 1018.6 |
| 20260504004012 | 12 | 31 | 0.0 | 0.0 | 0.00 | 0.00 | 0.00 | 53 | 1018.7 |
| 20260504003508 | 12 | 38 | 0.0 | 0.0 | 0.00 | 0.00 | 0.00 | 53 | 1018.6 |
| 20260504003006 | 13 | 53 | 0.0 | 0.0 | 0.00 | 0.00 | 0.00 | 51 | 1018.6 |
| 20260504002502 | 13 | 50 | 0.0 | 0.0 | 0.00 | 0.00 | 0.00 | 50 | 1018.4 |
| 20260504001959 | 13 | 50 | 0.0 | 0.0 | 0.00 | 0.00 | 0.00 | 48 | 1018.4 |
| 20260504001457 | 14 | 57 | 0.0 | 0.0 | 0.00 | 0.00 | 0.00 | 48 | 1018.4 |
| 20260504000953 | 14 | 56 | 0.0 | 0.0 | 0.00 | 0.00 | 0.00 | 46 | 1018.5 |
| 20260504000450 | 15 | 72 | 0.0 | 0.0 | 0.00 | 0.00 | 0.00 | 45 | 1018.2 |
| 20260503235948 | 15 | 50 | 0.0 | 0.0 | 0.00 | 0.00 | 0.00 | 43 | 1018.2 |
| 20260503235445 | 15 | 54 | 0.0 | 0.0 | 0.00 | 0.00 | 0.00 | 43 | 1018.1 |
| 20260503234943 | 16 | 64 | 0.0 | 0.0 | 0.00 | 0.00 | 0.00 | 42 | 1018.3 |
| 20260503234440 | 16 | 61 | 0.0 | 0.0 | 0.00 | 0.00 | 0.00 | 41 | 1018.2 |
| 20260503233938 | 16 | 48 | 0.0 | 0.0 | 0.00 | 0.00 | 0.00 | 39 | 1018.3 |
| 20260503233434 | 16 | 69 | 0.0 | 0.0 | 0.00 | 0.00 | 0.00 | 38 | 1018.3 |
| 20260503232931 | 17 | 82 | 0.0 | 0.0 | 0.00 | 0.00 | 0.00 | 36 | 1018.1 |
| 20260503232428 | 17 | 58 | 0.0 | 0.0 | 0.00 | 0.00 | 0.00 | 34 | 1018.0 |
| 20260503231926 | 17 | 59 | 0.0 | 0.0 | 0.00 | 0.00 | 0.00 | 33 | 1018.1 |
| 20260503231423 | 17 | 56 | 0.0 | 0.0 | 0.00 | 0.00 | 0.00 | 33 | 1018.3 |
| 20260503230919 | 18 | 41 | 0.0 | 1.6 | 0.00 | 0.00 | 0.00 | 31 | 1018.2 |
| 20260503230416 | 18 | 58 | 0.0 | 0.0 | 0.00 | 0.00 | 0.00 | 32 | 1018.0 |
| 20260503225914 | 18 | 39 | 0.0 | 1.6 | 0.00 | 0.00 | 0.00 | 31 | 1018.0 |
| 20260503225409 | 18 | 49 | 0.0 | 1.6 | 0.00 | 0.00 | 0.00 | 29 | 1018.1 |
| 20260503224906 | 18 | 62 | 0.0 | 4.8 | 0.00 | 0.00 | 0.00 | 30 | 1018.2 |
| 20260503224403 | 18 | 111 | 1.6 | 1.6 | 0.00 | 0.00 | 0.00 | 29 | 1018.3 |
| 20260503223900 | 18 | 29 | 0.0 | 1.6 | 0.00 | 0.00 | 0.00 | 29 | 1018.2 |
| 20260503223358 | 18 | 52 | 0.0 | 1.6 | 0.00 | 0.00 | 0.00 | 27 | 1018.0 |
| 20260503222853 | 19 | 73 | 0.0 | 0.0 | 0.00 | 0.00 | 0.00 | 27 | 1018.1 |
| 20260503222352 | 19 | 53 | 0.0 | 1.6 | 0.00 | 0.00 | 0.00 | 27 | 1018.1 |
| 20260503221850 | 19 | 35 | 0.0 | 0.0 | 0.00 | 0.00 | 0.00 | 29 | 1018.2 |
| 20260503221348 | 18 | 64 | 0.0 | 1.6 | 0.00 | 0.00 | 0.00 | 27 | 1018.1 |
| 20260503220844 | 18 | 68 | 0.0 | 1.6 | 0.00 | 0.00 | 0.00 | 27 | 1018.0 |
| 20260503220341 | 19 | 56 | 0.0 | 0.0 | 0.00 | 0.00 | 0.00 | 27 | 1018.1 |
| 20260503215838 | 19 | 54 | 0.0 | 1.6 | 0.00 | 0.00 | 0.00 | 26 | 1018.1 |